Tracking 22130 objects as of 21-Jan-2021
HD Live streaming from Space Station
objects crossing your sky now

STARLINK-1797

Track STARLINK-1797 now!
10-day predictions
STARLINK-1797 is classified as:


NORAD ID: 46698
Int'l Code: 2020-073AE
Perigee: 553.1 km
Apogee: 555.6 km
Inclination: 53.1 °
Period: 95.6 minutes
Semi major axis: 6925 km
RCS: Unknown
Launch date: October 18, 2020
Source: United States (US)
Launch site: AIR FORCE EASTERN TEST RANGE (AFETR)
aabbcc
Your satellite tracking list
Your tracking list is empty




NASA's NSSDC Master Catalog

Two Line Element Set (TLE):
1 46698U 20073AE  21021.58335648 -.00031300  00000-0 -20914-2 0  9990
2 46698  53.0524  10.3075 0001765  67.8359 124.5168 15.06403588  1757
Source of the keplerian elements: AFSPC